Home   Weather   Portsmouth   Past weeks

Flag for United Kingdom Past Weather in Portsmouth, England, United Kingdom — Yesterday and Last 2 Weeks

50 °F

Sprinkles. Passing clouds.

Feels Like: 50 °F
Forecast: 51 / 60 °F
Wind: 1 mph from Northeast

Location: Southampton / Weather Centre

Current Time: Oct 24, 2016 at 9:12:58 PM

Latest Report: Oct 24, 2016 at 8:20 PM

Visibility: 4 mi

Pressure: 29.98 "Hg

Humidity: 94%

Dew Point: 48 °F

Location of PortsmouthLocation

Past Weather in Portsmouth — Graph


Portsmouth Temperature Yesterday

Maximum temperature yesterday: 54 °F (at 2:50 PM)
Minimum temperature yesterday: 39 °F (at 6:50 AM)
Average temperature yesterday: 48 °F

High & Low Weather Summary for the Past Weeks

High61 °F (Oct 15, 1:20 PM)100% (Oct 10, 6:50 AM)30.36 "Hg (Oct 10, 6:50 AM)
Low34 °F (Oct 22, 5:50 AM)47% (Oct 10, 5:20 PM)29.65 "Hg (Oct 14, 2:20 PM)
Average50 °F78%30.01 "Hg
* Reported Oct 9 7:20 PM — Oct 24 7:50 PM, Portsmouth, Weather by CustomWeather, © 2016

Note: Actual official high and low records may vary slightly from our data, if they occured in-between our weather recording intervals... More about our weather records


Portsmouth Weather History for the Previous 24 Hours

Scroll right to see more
Time TempWeatherWind HumidityBarometerVisibility
7:50 PM
Mon, Oct 24
50 °FScattered showers. Passing clouds.2 mph94%29.98 "Hg4 mi
7:20 PM50 °FSprinkles. Passing clouds.No wind94%29.95 "Hg4 mi
6:50 PM50 °FSprinkles. Passing clouds.No wind94%29.95 "Hg4 mi
6:20 PM50 °FPassing clouds.1 mph94%29.92 "Hg4 mi
5:50 PM50 °FSprinkles. Scattered clouds.No wind94%29.92 "Hg4 mi
5:20 PM50 °FScattered showers. Scattered clouds.No wind94%29.92 "Hg4 mi
4:50 PM52 °FLight rain. Scattered clouds.No wind88%29.92 "Hg5 mi
4:20 PM52 °FLight rain. Scattered clouds.1 mph82%29.89 "Hg6 mi
3:50 PM54 °FLight rain. Scattered clouds.2 mph72%29.89 "Hg6 mi
3:20 PM54 °FBroken clouds.3 mph72%29.89 "Hg6 mi
2:50 PM54 °FBroken clouds.3 mph72%29.89 "Hg6 mi
2:20 PM54 °FPartly sunny.3 mph72%29.89 "Hg6 mi
1:50 PM54 °FPartly sunny.5 mph72%29.89 "Hg5 mi
1:20 PM54 °FPartly sunny.5 mph77%29.89 "Hg5 mi
12:50 PM52 °FPartly sunny.3 mph82%29.89 "Hg5 mi
12:20 PM52 °FPartly sunny.3 mph82%29.89 "Hg5 mi
11:50 AM52 °FPartly sunny.6 mph77%29.89 "Hg5 mi
11:20 AM52 °FPartly sunny.3 mph77%29.86 "Hg5 mi
10:50 AM52 °FPartly sunny.3 mph77%29.86 "Hg5 mi
10:20 AM50 °FPartly sunny.6 mph82%29.86 "Hg5 mi
9:50 AM48 °FPartly sunny.6 mph87%29.86 "Hg5 mi
9:20 AM48 °FPartly sunny.5 mph87%29.86 "Hg5 mi
8:50 AM48 °FPartly sunny.3 mph82%29.86 "Hg5 mi
8:20 AM48 °FPartly sunny.5 mph82%29.86 "Hg5 mi
7:50 AM46 °FPartly sunny.5 mph87%29.83 "Hg5 mi
7:20 AM46 °FPassing clouds.9 mph87%29.83 "Hg6 mi
6:50 AM46 °FPassing clouds.6 mph93%29.83 "Hg6 mi
6:20 AM46 °FPassing clouds.3 mph87%29.83 "Hg6 mi
5:50 AM46 °FPassing clouds.2 mph87%29.80 "Hg6 mi
9:50 PM
Sun, Oct 23
48 °FPassing clouds.9 mph71%29.80 "HgN/A
9:20 PM48 °FPassing clouds.7 mph71%29.80 "HgN/A
Weather by CustomWeather, © 2016

See weather overviewHow to use our weather pages